Weather History for KBHM - December, 2014

Change the Weather History Date:

Wednesday, December 3, 2014

  Actual Average Record
Temperature  
Mean Temperature 60 °F 49 °F  
Max Temperature 71 °F 59 °F 76 °F (1933)
Min Temperature 49 °F 39 °F 13 °F (1929)
Degree Days  
Heating Degree Days 5 16  
Month to date heating degree days 11 48  
Since 1 July heating degree days 573 506  
Growing Degree Days 10 (Base 50)    
Moisture  
Dew Point 52 °F    
Average Humidity 77    
Maximum Humidity 100    
Minimum Humidity 53    
Precipitation  
Precipitation 0.00 in 0.17 in 4.03 in (1983)
Month to date precipitation T 0.50  
Year to date precipitation 42.62 49.77  
Snow  
Snow 0.00 in 0.00 in - ()
Month to date snowfall 0.0 0.0  
Since 1 July snowfall 0.0 0.0  
Snow Depth 0.00 in    
Sea Level Pressure  
Sea Level Pressure 30.27 in    
Wind  
Wind Speed 2 mph (North)    
Max Wind Speed 9 mph    
Max Gust Speed 15 mph    
Visibility 10 miles    
Events      
T = Trace of Precipitation, MM = Missing Value Source: NWS Daily Summary

Daily Weather History Graph

Daily Weather History Graph

Search for Another Location

Airport or City:

Trip Planner

Search our weather history database for the weather conditions in past years. The results will help you decide how hot, cold, wet, or windy it might be!

Date:

Astronomy

Dec. 03, 2014 Rise Set
Actual Time 6:34 AM CST 4:38 PM CST
Civil Twilight 6:07 AM CST 5:05 PM CST
Nautical Twilight 5:36 AM CST 5:36 PM CST
Astronomical Twilight 5:06 AM CST 6:06 PM CST
Moon 2:51 PM CST (12/3) 3:30 AM CST (12/3)
Length of Visible Light 10h 58m
Length of Day
10h 03m
Waxing Gibbous, 91% of the Moon is Illuminated
Dec 3
Waxing Gibbous
Dec 6
Full
Dec 14
Last Quarter
Dec 21
New
Dec 28
First Quarter

Hourly Weather History & Observations

Time (CST) Temp. Dew Point Humidity Pressure Visibility Wind Dir Wind Speed Gust Speed Precip Events Conditions
12:53 AM 54.0 °F 52.0 °F 93% 30.25 in 10.0 mi North 3.5 mph - N/A   Partly Cloudy
1:53 AM 53.1 °F 51.1 °F 93% 30.25 in 9.0 mi Calm Calm - N/A   Clear
2:53 AM 51.1 °F 48.9 °F 92% 30.25 in 9.0 mi ESE 3.5 mph - N/A   Mostly Cloudy
3:53 AM 52.0 °F 51.1 °F 97% 30.24 in 10.0 mi Calm Calm - N/A   Mostly Cloudy
4:53 AM 53.1 °F 51.1 °F 93% 30.25 in 9.0 mi SE 3.5 mph - N/A   Mostly Cloudy
5:53 AM 51.1 °F 50.0 °F 96% 30.27 in 8.0 mi Calm Calm - N/A   Partly Cloudy
6:53 AM 50.0 °F 48.9 °F 96% 30.29 in 6.0 mi Calm Calm - N/A   Partly Cloudy
7:53 AM 54.0 °F 52.0 °F 93% 30.30 in 7.0 mi Calm Calm - N/A   Mostly Cloudy
8:53 AM 59.0 °F 53.1 °F 81% 30.32 in 10.0 mi NNE 5.8 mph - N/A   Mostly Cloudy
9:53 AM 63.0 °F 52.0 °F 67% 30.32 in 10.0 mi NE 4.6 mph - N/A   Mostly Cloudy
10:53 AM 66.0 °F 52.0 °F 60% 30.31 in 10.0 mi Calm Calm - N/A   Mostly Cloudy
11:53 AM 68.0 °F 52.0 °F 56% 30.28 in 10.0 mi Calm Calm - N/A   Mostly Cloudy
12:53 PM 69.1 °F 53.1 °F 57% 30.26 in 10.0 mi West 3.5 mph - N/A   Mostly Cloudy
1:53 PM 69.1 °F 52.0 °F 54% 30.24 in 10.0 mi North 4.6 mph - N/A   Mostly Cloudy
2:53 PM 69.1 °F 53.1 °F 57% 30.24 in 10.0 mi North 3.5 mph - N/A   Overcast
3:53 PM 66.0 °F 52.0 °F 60% 30.25 in 10.0 mi NNW 3.5 mph - N/A   Overcast
4:53 PM 60.1 °F 52.0 °F 75% 30.26 in 10.0 mi North 6.9 mph - N/A   Scattered Clouds
5:53 PM 57.9 °F 52.0 °F 81% 30.27 in 10.0 mi Calm Calm - N/A   Scattered Clouds
6:53 PM 57.9 °F 52.0 °F 81% 30.27 in 10.0 mi Calm Calm - N/A   Partly Cloudy
7:53 PM 55.9 °F 52.0 °F 87% 30.28 in 10.0 mi North 3.5 mph - N/A   Clear
8:53 PM 55.0 °F 51.1 °F 86% 30.27 in 10.0 mi NNE 3.5 mph - N/A   Mostly Cloudy
9:53 PM 54.0 °F 51.1 °F 90% 30.27 in 9.0 mi Calm Calm - N/A   Clear
10:53 PM 55.0 °F 51.1 °F 86% 30.26 in 10.0 mi NNW 3.5 mph - N/A   Clear
11:53 PM 59.0 °F 51.8 °F 77% 30.26 in 10.0 mi ENE 3.5 mph - N/A   Scattered Clouds